Wind_Speed
19 19 17 16 15 16 16 15 16 16 16 15 15 14 14 14 15 15 15 14 13 12 12 12 10 8 6 4 6 9 11 12 11 8 9 11 15 26 31 34 30 28 22
22 20 19 18 18 19 18 18 18 19 19 17 16 15 15 15 16 16 16 15 14 13 11 11 9 8 6 4 5 7 11 13 15 14 10 9 10 11 19 24 25 25 23
23 23 21 19 21 21 21 22 21 20 20 19 17 16 16 16 16 16 16 15 15 13 12 11 9 8 6 4 4 6 9 12 15 17 17 11 9 10 10 12 12 15 19
24 23 23 22 22 23 25 25 23 22 21 20 18 17 16 16 16 16 16 15 15 14 12 11 9 8 6 4 3 4 7 10 12 15 16 15 11 7 6 8 6 10 12
26 29 29 26 24 27 28 27 25 23 22 21 19 17 16 16 16 16 16 16 15 15 13 11 10 8 7 6 4 4 6 9 11 13 13 13 12 8 3 3 3 2 2
25 26 26 25 27 27 27 26 25 24 23 22 21 18 17 17 17 16 16 16 16 15 14 12 10 9 8 7 6 5 6 7 8 11 12 12 12 10 4 7 6 12 19
30 27 25 22 23 24 25 25 24 24 24 24 21 19 18 18 18 17 17 16 16 16 15 13 12 11 10 9 7 6 7 8 8 9 10 10 10 9 7 5 9 10 12
23 20 21 24 24 25 25 24 25 26 26 25 23 21 19 18 18 18 18 17 17 16 16 15 14 13 11 10 9 9 9 9 10 11 10 10 10 9 9 10 11 12 11
16 22 22 26 25 25 24 24 24 25 27 26 25 22 20 19 17 18 18 18 18 18 18 17 15 14 13 12 11 11 10 11 12 13 13 13 12 11 11 12 12 12 13
21 22 24 23 22 22 25 25 26 27 28 29 27 25 22 19 18 19 20 20 20 20 19 18 17 16 15 14 14 14 13 13 13 14 14 14 15 14 14 14 14 14 14
21 24 24 22 21 22 25 26 28 30 30 30 29 26 24 21 20 21 22 22 21 21 21 20 19 18 17 17 16 16 15 15 16 16 16 16 17 17 18 19 20 20 19
23 24 23 22 25 25 24 25 29 30 30 31 30 29 27 24 22 22 23 24 23 23 22 22 22 21 20 19 19 19 19 18 18 19 19 20 19 19 20 21 22 23 25
24 26 28 26 23 24 25 25 28 30 31 32 32 31 29 28 25 25 25 25 27 25 24 24 24 23 23 22 22 23 22 22 21 22 22 22 23 23 24 25 24 23 24
30 32 32 27 29 30 28 27 27 30 31 33 33 32 31 29 27 28 29 28 28 28 27 26 25 25 25 26 26 26 26 26 26 26 26 25 26 27 27 28 27 27 26
39 37 36 37 37 33 29 28 30 34 36 36 34 32 31 30 30 32 32 32 32 31 30 29 28 28 28 28 29 29 29 30 31 31 30 30 30 30 30 31 31 32 31
44 37 37 43 43 41 37 33 34 36 40 40 35 33 32 32 31 33 35 36 36 36 34 32 31 31 31 32 33 33 34 34 34 34 34 34 34 34 34 34 35 35 34
38 42 42 43 42 42 41 38 36 38 43 42 39 36 35 35 36 38 39 40 40 40 37 35 35 35 35 36 37 38 38 39 38 38 38 38 38 38 38 38 38 38 37
32 32 37 41 41 44 46 45 44 41 45 48 49 47 45 42 41 42 44 44 43 42 40 38 39 40 40 40 41 42 42 43 42 42 42 41 41 42 42 43 42 42 43
33 33 34 35 39 46 47 48 50 50 49 56 55 53 52 52 51 49 46 43 44 44 43 43 44 45 45 45 45 46 46 46 46 46 45 46 46 46 46 46 46 46 46
20 27 28 28 32 37 42 45 49 52 54 53 58 60 58 57 54 51 45 44 45 46 47 48 48 48 48 48 47 47 48 48 49 48 48 49 49 49 49 49 49 50 49
31 27 26 28 28 30 35 39 43 48 53 55 55 56 56 57 53 48 47 46 46 47 48 49 48 49 48 47 47 47 48 49 49 50 50 51 52 52 52 52 53 53 54
32 34 32 27 25 26 29 31 35 39 41 45 48 51 51 51 49 48 47 47 48 48 47 47 45 44 44 45 47 47 48 49 50 51 53 53 54 54 54 55 56 57 58
32 33 32 32 32 31 31 32 34 35 36 38 40 41 41 43 44 46 46 45 44 44 43 45 47 48 49 49 49 49 49 49 49 51 52 55 56 57 58 58 58 60 61
38 40 41 38 34 37 36 36 36 37 37 38 39 40 40 40 40 40 40 41 43 44 46 47 48 49 50 50 50 50 52 53 54 54 54 55 57 58 59 58 58 58 58
41 41 43 44 43 40 38 38 38 38 38 37 38 40 41 42 42 43 45 46 48 49 49 49 48 47 44 44 46 46 47 49 50 51 54 56 57 58 59 58 58 58 57
39 39 39 42 45 46 46 44 43 41 39 40 42 43 44 45 47 49 50 50 49 47 45 42 42 44 46 48 49 49 49 51 52 54 56 57 58 58 56 56 55 53 54
Wind_Direction
240 242 244 247 256 264 270 277 278 274 272 273 276 280 285 286 287 287 287 288 289 291 294 298 300 304 315 347 18 27 29 28 19 1 325 303 272 254 252 250 259 267 265
245 248 244 247 256 262 267 273 278 277 273 271 275 281 284 283 283 283 282 282 283 284 283 283 287 292 302 324 3 22 25 29 30 22 17 349 321 292 262 258 255 265 273
245 250 248 251 255 261 266 269 273 271 267 266 271 277 280 278 277 276 276 275 274 275 276 276 276 277 280 298 346 9 17 22 22 21 20 9 348 313 286 257 265 258 273
246 249 249 255 256 260 263 268 271 264 258 257 263 271 272 272 272 272 270 269 270 270 268 267 267 268 269 277 308 347 1 12 18 22 19 15 355 315 334 334 300 250 247
248 249 252 251 253 259 262 265 268 264 258 254 259 264 264 267 269 269 267 264 263 263 263 260 261 262 260 267 286 326 349 358 5 13 17 17 11 3 319 297 212 172 280
245 248 247 246 254 256 263 268 268 262 255 252 255 254 254 260 265 265 262 260 258 257 257 258 260 260 261 265 277 301 329 344 354 359 2 8 11 12 302 254 225 285 294
243 240 249 250 260 262 265 264 261 259 252 247 251 252 256 262 265 263 258 253 252 251 251 253 255 258 261 264 271 289 312 326 337 345 347 350 353 350 342 315 289 290 293
237 231 247 263 259 262 258 253 256 253 248 246 247 248 253 262 265 263 258 252 247 245 245 247 251 254 257 263 271 285 303 316 324 329 332 331 329 324 319 313 311 312 313
231 256 257 262 261 262 256 266 255 252 246 244 246 248 253 256 260 262 257 250 249 248 248 249 252 255 258 263 270 282 297 309 319 323 324 324 321 317 313 310 308 308 308
246 257 259 258 259 258 261 260 254 251 242 242 242 246 250 256 262 260 256 253 253 253 251 251 255 258 262 267 272 280 291 304 311 314 316 316 316 315 314 312 309 308 309
265 262 260 261 264 263 266 255 253 248 245 244 245 247 250 258 265 263 260 258 257 256 256 256 259 262 265 270 273 278 287 297 305 310 312 312 311 312 313 316 318 317 315
256 258 255 263 267 269 264 261 257 249 244 243 242 242 248 258 267 266 264 261 260 261 261 261 262 266 269 273 276 279 284 292 300 306 309 308 306 305 306 308 310 311 312
261 261 266 274 261 271 271 261 259 249 246 244 242 242 250 259 264 266 265 263 260 262 263 264 265 266 269 274 277 279 282 287 293 297 299 300 300 299 300 300 301 302 304
264 266 269 269 268 272 267 258 253 245 248 246 243 243 250 259 264 267 268 268 265 262 264 266 268 269 271 275 277 279 282 284 287 290 292 293 293 293 293 294 295 295 295
270 269 269 268 269 267 263 257 251 254 250 241 238 242 248 257 263 266 268 270 268 266 267 268 270 270 272 276 277 278 281 283 285 286 288 289 289 289 289 289 289 289 290
277 268 265 261 264 264 262 258 251 252 247 239 238 238 243 253 262 270 271 270 268 266 268 268 269 271 273 275 275 276 278 279 281 283 284 285 285 285 286 287 288 287 288
269 262 258 255 255 254 254 253 247 246 241 241 234 236 243 251 262 267 274 271 268 265 265 266 268 269 270 272 274 276 277 278 280 281 283 284 284 284 284 284 285 287 287
268 266 261 253 247 247 247 244 241 240 240 237 239 249 254 260 266 270 276 271 265 263 263 264 265 267 269 271 272 274 275 277 279 280 281 282 283 283 283 282 283 285 287
264 263 260 262 255 246 244 243 240 238 238 239 245 249 255 260 267 272 270 263 260 260 261 261 263 265 267 270 269 271 273 276 278 279 280 280 281 281 281 281 281 282 283
267 263 266 262 263 260 253 250 243 240 240 243 246 249 255 258 264 268 260 257 256 256 258 261 264 266 268 270 270 271 273 274 275 275 274 274 275 276 276 276 276 278 280
271 271 268 267 263 258 258 255 251 245 244 246 250 254 258 262 262 259 258 256 256 258 262 264 264 266 267 268 271 272 273 274 274 274 275 275 276 276 276 276 275 276 276
265 264 266 260 252 250 250 248 249 250 250 252 254 255 256 256 258 258 257 257 258 259 260 262 263 265 268 271 273 274 273 272 274 275 276 277 278 279 278 276 276 276 276
254 255 263 260 249 242 239 238 239 242 247 251 253 254 255 255 255 255 255 256 256 255 257 261 265 269 272 274 273 273 274 275 276 278 279 280 280 280 279 277 277 277 279
259 258 259 262 262 256 253 254 254 255 258 259 260 260 259 259 257 257 256 255 257 260 263 267 270 272 274 274 274 273 274 274 274 275 276 277 278 279 280 281 282 282 282
257 255 256 259 262 262 262 262 262 260 259 260 261 261 260 258 257 257 259 263 267 270 271 272 272 270 269 269 271 272 273 274 275 276 276 277 277 278 279 280 281 282 281
259 258 256 256 258 261 264 266 268 269 270 270 268 267 267 268 269 269 270 270 270 269 267 268 269 271 271 273 274 275 276 276 276 276 277 277 278 279 280 280 280 279 279
Height
3158 3160 3161 3162 3162 3163 3164 3165 3166 3166 3166 3166 3166 3166 3165 3165 3165 3164 3165 3165 3165 3165 3164 3163 3164 3163 3162 3161 3160 3158 3156 3154 3152 3151 3148 3147 3146 3146 3150 3153 3155 3156 3153
3154 3156 3158 3159 3160 3160 3161 3161 3162 3162 3162 3163 3163 3163 3163 3163 3162 3162 3161 3162 3161 3161 3162 3162 3162 3161 3160 3160 3159 3157 3155 3154 3152 3149 3147 3145 3145 3144 3145 3147 3151 3153 3154
3150 3151 3153 3155 3156 3156 3157 3157 3158 3158 3158 3159 3159 3160 3160 3160 3160 3160 3160 3159 3159 3159 3159 3160 3159 3159 3159 3158 3156 3155 3154 3152 3150 3147 3145 3143 3144 3142 3142 3144 3147 3149 3151
3144 3145 3147 3149 3151 3151 3151 3152 3152 3153 3153 3154 3155 3156 3156 3157 3157 3157 3157 3156 3157 3157 3157 3157 3157 3157 3157 3156 3156 3155 3153 3151 3150 3147 3145 3143 3142 3140 3140 3141 3143 3145 3149
3138 3139 3141 3143 3145 3144 3145 3145 3146 3147 3148 3150 3151 3152 3152 3153 3153 3153 3153 3153 3154 3154 3154 3154 3155 3154 3154 3154 3154 3153 3152 3150 3148 3147 3146 3144 3141 3139 3140 3142 3144 3145 3147
3131 3132 3134 3136 3138 3139 3140 3141 3142 3142 3143 3145 3146 3147 3148 3148 3149 3149 3149 3150 3150 3151 3151 3152 3152 3152 3152 3152 3151 3150 3150 3149 3147 3146 3145 3143 3142 3141 3141 3143 3143 3144 3144
3125 3127 3129 3131 3132 3134 3135 3135 3135 3136 3137 3139 3142 3144 3145 3145 3145 3145 3145 3146 3147 3148 3148 3149 3149 3149 3149 3148 3148 3148 3147 3146 3145 3145 3143 3142 3141 3141 3141 3141 3141 3141 3141
3119 3123 3125 3126 3127 3127 3128 3129 3130 3130 3132 3134 3136 3138 3140 3141 3142 3142 3142 3143 3143 3144 3145 3145 3146 3146 3146 3146 3145 3145 3144 3143 3143 3143 3142 3141 3140 3139 3139 3139 3138 3138 3137
3117 3119 3120 3120 3120 3121 3122 3123 3124 3125 3127 3129 3131 3133 3135 3136 3136 3137 3138 3138 3139 3140 3140 3141 3141 3142 3142 3142 3142 3142 3141 3141 3140 3139 3139 3138 3138 3138 3137 3137 3137 3136 3135
3112 3113 3113 3113 3114 3115 3116 3117 3118 3119 3121 3122 3124 3127 3128 3130 3131 3132 3132 3134 3135 3135 3136 3136 3137 3137 3137 3137 3137 3137 3137 3136 3136 3135 3134 3134 3134 3134 3133 3133 3133 3133 3132
3106 3106 3106 3107 3109 3109 3110 3110 3111 3112 3114 3117 3119 3122 3123 3125 3126 3126 3127 3128 3129 3130 3131 3131 3132 3132 3133 3133 3133 3133 3133 3132 3132 3131 3130 3129 3129 3128 3128 3127 3127 3127 3127
3101 3101 3101 3102 3103 3104 3104 3105 3105 3106 3109 3111 3113 3115 3117 3119 3120 3120 3121 3123 3123 3124 3125 3126 3127 3127 3128 3128 3128 3128 3128 3127 3127 3126 3125 3124 3124 3123 3123 3123 3122 3122 3121
3096 3096 3095 3096 3096 3097 3097 3098 3099 3100 3102 3104 3106 3108 3110 3112 3113 3113 3115 3116 3117 3118 3119 3119 3120 3121 3121 3122 3122 3122 3122 3121 3121 3120 3119 3118 3117 3117 3116 3116 3115 3115 3114
3088 3088 3088 3089 3089 3090 3090 3090 3092 3094 3095 3096 3098 3101 3103 3105 3106 3107 3108 3109 3110 3111 3112 3113 3113 3114 3114 3114 3114 3115 3115 3114 3114 3114 3113 3112 3112 3111 3109 3108 3108 3108 3107
3079 3079 3080 3080 3079 3080 3081 3083 3085 3086 3088 3088 3090 3094 3096 3097 3098 3099 3100 3101 3102 3103 3104 3105 3106 3106 3107 3107 3107 3107 3107 3106 3106 3106 3105 3105 3104 3103 3102 3101 3100 3099 3098
3067 3067 3066 3067 3069 3070 3072 3074 3075 3077 3078 3079 3083 3084 3087 3089 3091 3091 3092 3092 3094 3094 3095 3096 3097 3097 3099 3099 3098 3098 3098 3098 3098 3098 3097 3097 3096 3096 3095 3094 3093 3092 3091
3050 3050 3052 3053 3054 3057 3060 3062 3065 3066 3068 3070 3073 3074 3077 3079 3082 3082 3081 3083 3084 3084 3086 3086 3087 3088 3088 3089 3088 3089 3088 3088 3088 3088 3088 3087 3087 3086 3086 3085 3084 3083 3082
3037 3037 3036 3037 3040 3042 3044 3048 3051 3054 3057 3059 3061 3065 3066 3068 3070 3071 3072 3072 3073 3073 3074 3075 3076 3076 3077 3078 3078 3078 3078 3077 3078 3077 3077 3077 3076 3076 3075 3074 3073 3072 3071
3024 3026 3024 3025 3026 3028 3030 3033 3037 3041 3043 3045 3050 3054 3055 3057 3058 3059 3060 3060 3060 3061 3062 3063 3064 3064 3066 3066 3066 3065 3065 3066 3066 3067 3066 3066 3065 3065 3064 3064 3063 3062 3061
3016 3016 3017 3017 3017 3018 3019 3021 3025 3028 3032 3035 3038 3041 3043 3045 3045 3046 3046 3047 3047 3048 3049 3049 3051 3052 3053 3053 3054 3054 3053 3053 3053 3054 3054 3054 3053 3052 3051 3050 3049 3048 3048
3008 3008 3008 3009 3010 3010 3011 3012 3015 3018 3021 3024 3027 3029 3031 3032 3032 3032 3032 3033 3034 3035 3036 3037 3038 3038 3039 3040 3040 3041 3040 3040 3038 3039 3039 3039 3039 3039 3038 3036 3035 3033 3032
3000 3000 2999 2999 3000 3001 3002 3004 3007 3009 3010 3012 3014 3016 3017 3018 3019 3019 3020 3021 3022 3023 3024 3024 3025 3026 3026 3027 3026 3026 3025 3025 3024 3023 3024 3024 3024 3023 3023 3022 3021 3020 3018
2990 2991 2991 2992 2993 2994 2995 2996 2998 3000 3001 3002 3003 3004 3004 3004 3005 3006 3007 3008 3008 3010 3011 3012 3012 3013 3013 3013 3012 3012 3012 3011 3010 3009 3009 3008 3007 3006 3006 3006 3004 3003 3002
2982 2983 2984 2983 2983 2984 2986 2987 2989 2990 2991 2991 2993 2993 2993 2993 2994 2995 2996 2996 2997 2997 2998 2998 2998 2998 2998 2998 2997 2997 2996 2995 2993 2992 2991 2990 2989 2988 2989 2988 2987 2986 2984
2969 2971 2973 2973 2973 2974 2975 2976 2977 2979 2980 2980 2981 2982 2982 2982 2982 2983 2984 2984 2984 2984 2984 2984 2984 2983 2983 2982 2981 2981 2981 2980 2978 2977 2976 2974 2973 2972 2972 2971 2971 2970 2968
2958 2959 2959 2960 2961 2961 2962 2963 2964 2965 2966 2967 2967 2969 2970 2970 2969 2970 2970 2969 2969 2969 2969 2969 2969 2969 2969 2969 2967 2966 2965 2963 2962 2961 2960 2960 2958 2956 2955 2956 2954 2953 2952